Вернуться в каталог

ONEWEB-0442

АктивенСвязьPO
NORAD 51636·PAYLOAD·🇬🇧 United Kingdom

Запущен Feb 10, 2022 с Guiana Space Centre

Loading…

Ближайшие Пролёты (ближайшие 24 часа)

TLE

СвежийSource: CelesTrak SupGP

Эпоха: Sep 14, 2026, 16:08 UTC

1 51636C 22012Q   26257.67238840  .00002535  00000+0  65371-2 0  2573
2 51636  87.9200 348.1074 0002122 118.0828 312.9669 13.17646010    17

Отслеживайте ONEWEB-0442 в реальном времени с AllMySat

Download on the App Store